Mitchell, SD

12:09 PM CST on December 06, 2019 (GMT -0600)
Mitchell Municipal

Weather History for KMHE - May, 2019

Change the Weather History Date:

Saturday, May 11, 2019

  Actual Average Record
Temperature  
Mean Temperature 51 °F 58 °F  
Max Temperature 57 °F 70 °F 96 °F (1906)
Min Temperature 45 °F 46 °F 21 °F (1946)
Degree Days  
Heating Degree Days 14 8  
Month to date heating degree days 167 102  
Since 1 July heating degree days 7855 7102  
Cooling Degree Days 0 1  
Month to date cooling degree days 0 8  
Year to date cooling degree days 0 10  
Growing Degree Days 1 (Base 50)    
Moisture  
Dew Point 43 °F    
Average Humidity 71    
Maximum Humidity 86    
Minimum Humidity 56    
Precipitation  
Precipitation 0.10 in 0.07 in 1.70 in (1920)
Month to date precipitation 1.36 0.87  
Year to date precipitation 8.94 4.67  
Snow  
Snow 0.00 in - 2.50 in (1905)
Month to date snowfall 0.0  
Since 1 July snowfall 67.6  
Snow Depth 0.00 in    
Sea Level Pressure  
Sea Level Pressure 29.82 in    
Wind  
Wind Speed 10 mph (SW)    
Max Wind Speed 17 mph    
Max Gust Speed 25 mph    
Visibility 9 miles    
Events Rain , Thunderstorm    
T = Trace of Precipitation, MM = Missing Value Source: NWS Daily Summary

Daily Weather History Graph

Daily Weather History Graph

Search for Another Location

Airport or City:

Astronomy

May. 11, 2019 Rise Set
Actual Time 6:11 AM CDT 8:46 PM CDT
Civil Twilight 5:38 AM CDT 9:19 PM CDT
Nautical Twilight 4:57 AM CDT 10:00 PM CDT
Astronomical Twilight 4:11 AM CDT 10:47 PM CDT
Moon 12:21 PM CDT (5/11) 2:28 AM CDT (5/11)
Length of Visible Light 15h 40m
Length of Day
14h 34m
Waxing Crescent, 46% of the Moon is Illuminated
May 11
Waxing Crescent
May 11
First Quarter
May 18
Full
May 26
Last Quarter
Jun 3
New

Hourly Weather History & Observations

Time (CDT) Temp. Windchill Dew Point Humidity Pressure Visibility Wind Dir Wind Speed Gust Speed Precip Events Conditions
12:53 AM 46.9 °F - 37.0 °F 68% 29.98 in 10.0 mi SSE 9.2 mph - N/A   Clear
1:53 AM 50.0 °F - 36.0 °F 59% 29.97 in 10.0 mi South 13.8 mph - N/A   Clear
2:53 AM 48.9 °F - 37.0 °F 64% 29.95 in 10.0 mi South 12.7 mph - N/A   Clear
3:53 AM 48.9 °F - 37.0 °F 64% 29.93 in 10.0 mi South 12.7 mph 21.9 mph N/A   Clear
4:53 AM 48.0 °F - 37.0 °F 66% 29.91 in 10.0 mi South 12.7 mph - N/A   Clear
5:53 AM 46.0 °F 40.2 °F 37.9 °F 73% 29.88 in 10.0 mi South 12.7 mph - N/A   Clear
6:53 AM 45.0 °F 39.7 °F 37.9 °F 76% 29.87 in 10.0 mi SSE 10.4 mph - N/A   Clear
7:53 AM 48.9 °F - 39.0 °F 69% 29.85 in 10.0 mi South 10.4 mph - N/A   Clear
8:53 AM 54.0 °F - 41.0 °F 62% 29.85 in 10.0 mi SSW 12.7 mph - N/A   Clear
9:53 AM 57.0 °F - 42.1 °F 57% 29.82 in 10.0 mi SSW 13.8 mph - N/A   Clear
10:53 AM 55.9 °F - 42.1 °F 60% 29.81 in 10.0 mi South 13.8 mph - 0.00 in   Overcast
11:53 AM 55.9 °F - 44.1 °F 64% 29.80 in 10.0 mi South 10.4 mph - 0.00 in   Overcast
12:53 PM 53.1 °F - 45.0 °F 74% 29.81 in 10.0 mi WSW 12.7 mph - 0.00 in Rain Light Rain
1:53 PM 50.0 °F - 46.0 °F 86% 29.82 in 8.0 mi West 11.5 mph - 0.01 in Rain Light Rain
2:53 PM 51.1 °F - 46.9 °F 86% 29.81 in 10.0 mi SSW 5.8 mph - 0.02 in   Overcast
3:53 PM 55.0 °F - 48.0 °F 77% 29.79 in 10.0 mi Variable 4.6 mph - N/A   Scattered Clouds
4:13 PM 57.0 °F - 48.0 °F 72% 29.78 in 10.0 mi Variable 5.8 mph - N/A Thunderstorm Mostly Cloudy
4:28 PM 55.9 °F - 46.0 °F 69% 29.78 in 10.0 mi WNW 4.6 mph - N/A   Mostly Cloudy
4:53 PM 50.0 °F - 43.0 °F 77% 29.80 in 10.0 mi North 6.9 mph - 0.00 in Rain Light Rain
5:53 PM 54.0 °F - 42.1 °F 64% 29.78 in 10.0 mi ESE 6.9 mph - 0.00 in   Clear
6:17 PM 53.1 °F - 44.1 °F 71% 29.76 in 10.0 mi ESE 11.5 mph - N/A Thunderstorm Thunderstorm
6:53 PM 48.9 °F - 44.1 °F 83% 29.77 in 4.0 mi Calm Calm - 0.05 in Rain , Thunderstorm Light Thunderstorms and Rain
7:08 PM 50.0 °F - 45.0 °F 83% 29.76 in 10.0 mi SSW 8.1 mph - 0.00 in   Overcast
7:53 PM 52.0 °F - 46.0 °F 80% 29.77 in 10.0 mi South 9.2 mph - 0.00 in   Overcast
8:42 PM 52.0 °F - 45.0 °F 77% 29.77 in 8.0 mi NW 15.0 mph 23.0 mph 0.00 in Rain Light Rain
8:49 PM 51.8 °F - 46.4 °F 82% 29.77 in 4.0 mi NNW 6.9 mph 23.0 mph 0.01 in Rain Rain
8:53 PM 50.0 °F - 46.0 °F 86% 29.78 in 4.0 mi NW 6.9 mph - 0.02 in Rain Light Rain
9:24 PM 50.0 °F - 46.0 °F 86% 29.77 in 10.0 mi West 4.6 mph - 0.00 in   Overcast
9:51 PM 50.0 °F - 44.6 °F 82% 29.77 in 10.0 mi West 6.9 mph - 0.00 in   Overcast
9:53 PM 50.0 °F - 45.0 °F 83% 29.78 in 10.0 mi West 6.9 mph - 0.00 in   Overcast
10:53 PM 48.0 °F - 43.0 °F 83% 29.80 in 10.0 mi West 9.2 mph - N/A   Clear
11:53 PM 46.9 °F - 43.0 °F 86% 29.80 in 10.0 mi West 8.1 mph - N/A   Partly Cloudy